Startseite
Über Mich
AHP4
Galerie
Sehschlangen
Tourenbuch
Bookmarks
Elektronik
Bewertung
Geschichten
[Tagesmessung] [Jahreswerte] [Information]

Messwerte vom 05.02.2022

Die letzten Messwerte von 23:58:50 Uhr:
KategorieMesswert
Temperatur [°C]5
Luftdruck [mBar]995
Sonneneinstrahlung0
Wind [km/h]10 aus Südwest
Niederschlag [l/m²]0
rel.Luftfeucht.82.3%
CO2 [ppm]869

Diagramme
Messwerte vom 05.02.2022
Tagesaggregation
KategorieMinimumMaximumSchnittSumme
Temperatur [°C]163.9458
Luftdruck [mBar]9931001997.8313
Sonneneinstrahlung22671.3563
Wind [km/h]28
rF [%]68.996.687.54
Niederschlag [l/m²]2.06
CO2 [ppm]4011043620.8
Einordnung alsKalter Tag

Messungen an benachbarten Tagen: Zur Jahresaggregation 2022
Tabelle aller Messwerte
UhrzeitTemperatur [°C]Luftdruck [mBar]SonneWind [km/h]RichtungRegen [l/m²]rF [%]CO2 [ppm]
00:01:46 3 993 0 10 W 0 96.6 749
00:04:46 3 994 0 5 SW 0 96.6 773
00:07:47 3 994 0 12 S 0 96.6 773
00:10:46 3 994 0 19 S 0 96.6 759
00:13:48 3 994 0 7 SW 0 96.6 753
00:16:45 3 994 0 11 S 0 96.6 744
00:19:47 3 994 0 3 W 0 96.6 755
00:22:47 3 994 0 17 S 0 96.6 750
00:25:46 3 994 0 4 W 0 96.6 750
00:28:46 3 994 0 7 W 0 96.6 741
00:31:45 3 995 0 4 S 0 96.6 743
00:34:48 3 994 0 11 NW 0 96.6 740
00:37:45 3 995 0 9 S 0 96.6 738
00:40:48 3 994 0 21 W 0 96.6 735
00:43:46 3 995 0 8 SW 0 96.6 742
00:46:49 3 995 0 10 W 0 96.6 731
00:49:47 3 994 0 8 W 0 96.6 723
00:52:45 3 995 0 12 SW 0 96.6 714
00:55:49 3 994 0 9 NW 0 96.6 717
00:58:46 3 995 0 7 N 0 96.6 715
01:01:46 3 995 0 3 S 0 96.6 709
01:04:49 3 995 0 22 W 0 96.6 720
01:07:46 3 995 0 3 S 0 96.6 731
01:10:46 3 995 0 4 SW 0 96.6 727
01:13:49 3 995 0 7 NW 0 96.6 726
01:16:47 3 995 0 5 S 0 96.6 730
01:19:49 3 995 0 5 NW 0 96.6 723
01:22:47 3 995 0 10 SW 0 96.6 739
01:25:45 3 995 0 5 S 0 96.6 720
01:28:45 3 994 0 1 W 0 96.6 723
01:31:47 3 995 0 2 NO 0 96.6 720
01:34:45 3 995 0 9 SO 0 96.6 727
01:37:45 3 995 0 9 SW 0 96.6 731
01:40:47 3 995 0 9 S 0 96.6 735
01:43:46 3 995 0 4 SW 0 96.6 741
01:46:46 3 995 0 12 NO 0 96.6 739
01:49:48 3 995 0 5 SW 0 96.6 738
01:52:46 3 995 0 2 SO 0 96.6 741
01:55:43 3 995 0 2 W 0 96.6 736
01:58:47 3 995 0 2 SW 0 96.6 739
02:01:44 3 995 0 8 W 0 96.6 735
02:04:47 3 995 0 15 SW 0 96.6 730
02:07:48 3 995 0 2 SW 0 96.6 737
02:10:47 3 995 0 7 SO 0 96.6 742
02:13:46 3 995 0 7 SO 0 96.6 741
02:16:45 3 995 0 1 S 0 96.6 743
02:19:47 3 995 0 2 S 0 96.6 750
02:22:46 3 995 0 3 SW 0 96.6 747
02:25:44 3 995 0 3 S 0 96.6 743
02:28:45 3 995 0 3 0 96.6 750
02:31:45 3 995 0 1 O 0 96.6 746
02:34:47 3 995 0 1 SW 0 96.6 745
02:37:46 3 995 0 8 NW 0 96.6 744
02:40:45 3 995 0 6 SO 0 96.6 744
02:43:46 3 995 0 13 SW 0 96.6 741
02:46:46 3 995 0 2 S 0 96.6 746
02:49:45 3 995 0 5 O 0 96.6 748
02:52:46 3 995 0 7 S 0 96.6 756
02:55:48 3 995 0 3 SO 0 96.6 761
02:58:46 3 995 0 11 O 0 96.6 766
03:01:45 3 995 0 6 SW 0 96.6 764
03:04:49 4 995 0 1 SO 0 96.4 769
03:07:47 4 995 0 1 S 0 96.5 769
03:10:48 3 995 0 7 SW 0 96.6 777
03:13:44 3 995 0 5 W 0 96.6 774
03:16:47 4 995 0 7 S 0 96.5 777
03:19:44 3 995 0 2 O 0 96.6 778
03:22:46 3 995 0 5 SW 0 96.6 779
03:25:47 3 995 0 2 N 0 96.6 778
03:28:47 3 995 0 14 S 0 96.6 782
03:31:46 3 995 0 4 NO 0 96.6 788
03:34:47 3 995 0 14 S 0 96.6 782
03:37:47 3 995 0 16 W 0 96.6 793
03:40:46 3 995 0 3 S 0 96.6 794
03:43:45 3 995 0 1 S 0 96.6 800
03:46:46 3 995 0 6 SW 0 96.6 799
03:49:45 3 995 0 3 W 0 96.6 794
03:52:47 3 996 0 8 SW 0 96.6 793
03:55:48 3 995 0 6 SW 0.2575 96.6 788
03:58:46 3 995 0 12 W 0 96.6 791
04:01:46 3 995 0 5 W 0 96.6 778
04:04:48 3 995 0 2 NW 0 96.6 782
04:07:46 3 995 0 1 O 0 96.6 777
04:10:46 3 995 0 8 W 0 96.6 782
04:13:46 3 995 0 7 W 0 96.6 781
04:16:48 3 996 0 6 NO 0 96.6 782
04:19:46 3 996 0 9 SW 0 96.6 781
04:22:47 3 995 0 4 SW 0 96.6 779
04:25:47 3 995 0 12 SO 0 96.6 766
04:28:48 3 996 0 7 SW 0 96.6 770
04:31:47 3 996 0 3 NW 0 96.6 770
04:34:46 3 996 0 3 NO 0 96.6 776
04:37:47 3 996 0 13 NW 0 96.6 770
04:40:47 3 996 0 2 W 0 96.6 754
04:43:47 3 996 0 7 NW 0 96.6 755
04:46:47 3 996 0 8 W 0 96.6 765
04:49:47 3 996 0 8 S 0 96.6 767
04:52:46 3 995 0 7 W 0 96.6 764
04:55:48 3 996 0 4 NW 0 96.6 768
04:58:46 3 996 0 6 S 0 96.6 764
05:01:48 3 996 0 2 NW 0 96.6 768
05:04:44 3 995 0 6 S 0 96.6 772
05:07:49 3 996 0 15 S 0 96.6 780
05:10:49 3 996 0 3 SW 0 96.6 781
05:13:47 3 996 0 2 SW 0 96.6 782
05:16:47 3 996 0 1 W 0 96.6 782
05:19:48 3 996 0 9 SW 0 96.6 779
05:22:46 3 996 0 3 W 0 96.6 782
05:25:49 3 996 0 23 NW 0 96.6 782
05:28:46 3 996 0 9 SW 0 96.6 782
05:31:48 3 996 0 16 SW 0 96.6 782
05:34:47 3 996 0 4 NO 0 96.6 777
05:37:45 3 996 0 3 NW 0 96.6 776
05:40:45 3 997 0 3 SO 0 96.6 779
05:43:48 3 996 0 3 SW 0 96.6 790
05:46:46 3 996 0 5 SW 0 96.6 791
05:49:47 3 996 0 5 SW 0 96.6 795
05:52:46 3 996 0 2 SO 0 96.6 790
05:55:46 3 997 0 10 NW 0 96.6 790
05:58:45 3 997 0 7 NO 0 96.3 788
06:01:47 3 997 0 11 W 0 94.5 758
06:04:46 2 998 0 5 NW 0 93.9 732
06:07:48 2 998 0 4 W 0 96 723
06:10:46 1 997 0 4 S 0 96.6 731
06:13:46 1 998 0 8 W 0 96.6 739
06:16:45 1 998 0 5 0 96.6 735
06:19:50 1 998 0 14 W 0 96.6 720
06:22:48 1 998 0 6 W 0 96.6 712
06:25:46 1 998 0 1 W 0 96.6 723
06:28:47 1 997 0 5 W 0 96.6 725
06:31:48 1 997 0 5 NW 0 96.6 713
06:34:46 1 997 0 3 W 0 96.6 709
06:37:47 1 998 0 2 SW 0 96.6 707
06:40:45 1 998 0 5 W 0 96.6 717
06:43:49 1 998 0 2 NO 0 96.6 717
06:46:46 1 998 0 1 N 0 96.6 714
06:49:46 1 998 0 2 SW 0 96.6 714
06:52:47 1 997 0 2 W 0 96.6 714
06:55:47 1 998 0 4 S 0 96.6 716
06:58:48 1 998 0 5 W 0 96.6 720
07:01:47 1 998 0 3 SW 0 96.6 718
07:04:46 1 998 0 4 W 0 96.6 739
07:07:49 1 998 0 6 SW 0 96.6 790
07:10:47 1 998 0 15 NW 0.2575 96.6 803
07:13:45 2 998 0 6 SW 0 96.6 787
07:16:45 2 998 0 6 SW 0 96.6 793
07:19:47 1 998 0 10 W 0.2575 96.6 823
07:22:47 1 998 0 8 NW 0 96.6 844
07:25:45 1 998 3 7 W 0 96.6 857
07:28:45 1 998 5 7 W 0 96.6 853
07:31:48 1 998 9 8 NW 0 96.6 841
07:34:46 1 998 13 5 NW 0 96.6 866
07:37:50 1 998 19 4 SW 0 96.6 876
07:40:48 1 998 25 3 S 0 96.6 887
07:43:46 1 998 35 7 S 0.2575 96.6 889
07:46:48 1 998 44 4 NW 0 96.6 892
07:49:46 1 998 51 4 N 0 96.6 891
07:52:48 1 998 59 6 SW 0 96.6 887
07:55:49 1 998 72 0 NO 0 96.6 901
07:58:45 1 998 83 3 O 0 96.6 923
08:01:49 1 999 89 2 W 0 96.6 937
08:04:47 1 998 96 4 W 0 96.6 946
08:07:49 1 999 97 3 SW 0 96.6 966
08:10:46 1 999 111 4 SW 0 96.6 971
08:13:47 1 998 122 8 S 0 96.6 988
08:16:49 1 998 127 1 S 0.2575 96.6 1011
08:19:50 2 998 136 3 SW 0 96.6 1026
08:22:47 2 998 142 2 S 0 96.6 1041
08:25:49 2 999 146 2 W 0 96.6 1031
08:28:48 2 998 152 4 W 0 96.6 1043
08:31:47 2 999 154 3 SW 0 96.6 744
08:34:50 2 999 159 9 SO 0 96.6 612
08:37:47 2 999 161 2 0 96.6 881
08:40:47 2 999 163 2 S 0 96.6 927
08:43:48 2 999 171 1 SW 0 96.6 898
08:46:49 2 998 170 4 SW 0.2575 96.6 868
08:49:49 2 999 172 6 N 0 96.6 827
08:52:48 2 999 175 5 W 0 96.6 810
08:55:49 2 999 182 1 W 0 96.6 805
08:58:48 2 999 184 11 SW 0 96.6 808
09:01:46 2 999 186 6 W 0 96.6 799
09:04:48 3 999 166 12 W 0 96.6 782
09:07:49 3 999 173 3 SW 0.2575 96.6 770
09:10:48 3 999 180 7 W 0 96.6 761
09:13:47 3 999 176 5 S 0 96.6 756
09:16:50 3 998 174 20 SO 0 96.6 745
09:19:50 3 999 182 11 SW 0 96.6 740
09:22:48 3 998 193 5 NW 0 96.6 735
09:25:48 3 999 191 7 S 0 96.6 731
09:28:49 3 999 187 7 NW 0 96.6 726
09:31:47 3 999 202 5 W 0.2575 96.6 720
09:34:48 3 1000 201 10 W 0 96.6 711
09:37:49 3 1000 196 12 NW 0 96.6 699
09:40:49 3 1000 202 7 SO 0 96.6 694
09:43:46 3 999 191 7 W 0 96.6 687
09:46:48 3 1000 188 11 W 0 96.6 683
09:49:47 3 999 189 11 W 0 96.6 685
09:52:48 3 1000 188 14 SW 0 96.6 682
09:55:49 3 999 195 15 S 0 96.6 674
09:58:48 3 1000 192 16 SW 0 96.6 670
10:01:49 3 999 200 7 S 0 96.6 656
10:04:48 3 1000 200 8 SO 0 96.6 656
10:07:49 4 999 199 8 SW 0 96.6 650
10:10:48 4 999 199 28 SW 0 96.6 646
10:13:47 4 1000 192 7 W 0 96.6 647
10:16:49 4 1001 193 10 SW 0 96.6 636
10:19:47 4 999 195 7 SW 0 96.6 621
10:22:49 4 1000 194 5 SW 0 96.6 623
10:25:50 4 1001 189 2 NW 0 96.6 618
10:28:49 4 1000 199 6 SW 0 96.5 615
10:31:49 4 1000 200 10 SW 0 96.5 606
10:34:49 4 1001 199 5 SW 0 96.6 609
10:37:50 4 1001 200 3 W 0 96.6 608
10:40:49 4 1001 203 5 SW 0 96.5 603
10:43:49 4 1000 207 5 SO 0 96.5 594
10:46:50 4 1000 203 1 NW 0 96.5 590
10:49:48 4 1001 199 4 W 0 96.4 588
10:52:46 4 999 204 5 S 0 96.4 586
10:55:49 4 1000 204 3 SW 0 96.4 582
10:58:49 4 999 207 3 O 0 95.9 579
11:01:47 4 1000 209 4 W 0 95.4 577
11:04:48 4 999 211 17 W 0 95.2 574
11:07:46 5 1000 211 6 N 0 94.8 568
11:10:46 5 1001 214 5 O 0 94.5 571
11:13:49 5 1000 216 12 SO 0 93.7 567
11:16:46 5 1001 214 2 O 0 93.4 569
11:19:51 5 1001 209 13 S 0 92.9 562
11:22:49 5 1000 212 10 W 0 92.5 559
11:25:49 5 1000 210 14 SW 0 92.2 547
11:28:48 5 1000 210 8 W 0 91.3 548
11:31:48 5 1000 210 3 NW 0 91.6 544
11:34:48 5 1001 217 16 W 0 92 544
11:37:47 5 1000 218 3 NW 0 91.6 545
11:40:50 5 1000 215 7 SO 0 91 534
11:43:47 5 1001 217 10 W 0 90.8 531
11:46:49 5 1000 216 19 NW 0 89.3 518
11:49:49 5 1001 213 7 SW 0 89.3 522
11:52:47 5 1000 215 7 NW 0 89.6 522
11:55:49 6 1000 214 6 SW 0 89.5 523
11:58:48 6 1001 213 10 SW 0 89.1 516
12:01:50 6 1000 214 11 SW 0 88.7 504
12:04:47 5 1001 210 16 SW 0 87.8 503
12:07:48 5 1001 216 6 W 0 87.8 495
12:10:52 6 1001 208 10 SW 0 88.2 495
12:13:48 6 1001 203 7 SW 0 87.7 492
12:16:50 6 999 211 14 SW 0 87.4 495
12:19:51 6 1000 217 23 SW 0 87.2 489
12:22:50 6 1000 215 16 NW 0 86.7 488
12:25:49 6 1000 208 7 SW 0 85.1 471
12:28:48 6 1000 199 10 SW 0 84.7 478
12:31:49 5 1001 221 9 SW 0 85.5 480
12:34:49 5 1001 216 15 W 0 85.7 481
12:37:47 6 1000 206 11 SW 0 87.4 474
12:40:45 6 1000 205 7 0 86.6 471
12:43:48 6 1001 212 10 W 0 87 466
12:46:48 6 1000 218 7 SO 0 85.5 463
12:49:51 6 1001 222 7 SW 0 85.3 462
12:52:48 6 1000 217 9 N 0 85.2 463
12:55:52 6 1000 209 3 SO 0 84.5 468
12:58:46 6 1001 221 5 S 0 84 456
13:01:48 6 1000 207 5 N 0 83.7 451
13:04:50 6 1001 216 6 NW 0 83.3 440
13:07:48 6 1000 209 6 SW 0 82.9 443
13:10:49 5 1001 217 6 NW 0 84 439
13:13:49 5 1000 208 11 W 0 83.7 442
13:16:47 5 1001 199 3 W 0 82.8 442
13:19:47 5 1000 199 7 S 0 82.9 439
13:22:47 5 1001 191 8 NW 0 82.5 437
13:25:48 5 1000 182 4 O 0 83.7 433
13:28:48 5 1001 200 4 SW 0 84.6 436
13:31:47 5 1001 198 3 W 0 84.7 436
13:34:47 5 1001 198 4 W 0 84 433
13:37:46 5 1001 207 9 W 0 83.1 433
13:40:47 5 1001 218 2 NO 0 81.8 430
13:43:47 6 1001 213 3 W 0 81.5 427
13:46:31 4 1000 217 11 S 0 74.5 431
13:49:48 6 1000 212 2 W 0 78.1 427
13:52:47 6 1001 212 8 SW 0 78.8 427
13:55:47 6 1001 205 9 S 0 78.8 422
13:58:46 6 1001 211 18 O 0 77.3 421
14:01:50 6 1000 190 6 NW 0 78.4 428
14:04:47 6 1000 196 5 SW 0 79 428
14:07:49 5 1001 198 10 S 0 80.2 419
14:10:48 5 1000 205 6 SW 0 79.5 416
14:13:47 5 1000 204 8 SO 0 79.5 422
14:16:46 5 1000 203 7 N 0 77.4 418
14:19:46 5 1000 206 5 SW 0 77 413
14:22:49 5 1000 214 0 SO 0 75.9 410
14:25:48 6 1001 211 6 SW 0 76.7 416
14:28:47 6 1001 216 5 S 0 76.2 411
14:31:46 6 1000 219 2 N 0 75.9 413
14:34:48 6 1001 226 7 S 0 77.2 404
14:37:47 6 1001 221 5 SW 0 77 407
14:40:33 5 999 222 15 SW 0 68.9 407
14:43:48 6 1000 209 4 O 0 75 407
14:46:48 6 1001 203 11 W 0 75.9 407
14:49:47 6 1001 205 5 S 0 76 407
14:52:50 6 1001 216 19 SW 0 75.2 401
14:55:45 6 999 216 1 SW 0 74.8 404
14:58:47 6 1001 221 4 SW 0 76.2 403
15:01:46 6 1000 223 2 W 0 76.1 407
15:04:47 6 1000 218 5 N 0 77.1 405
15:07:49 6 1000 218 7 SW 0 73.9 404
15:10:48 6 1000 218 1 S 0 74.4 404
15:13:49 6 1000 216 14 SO 0 75 404
15:16:48 6 1001 208 5 NW 0 74.4 407
15:19:46 6 1000 215 5 SW 0 74.9 407
15:22:47 5 1000 214 12 S 0 74.3 404
15:25:47 5 1000 207 6 SW 0 74.1 407
15:28:46 6 1000 204 4 SO 0 73.5 407
15:31:48 6 1000 190 6 SW 0 72.9 407
15:34:48 5 1000 190 17 SW 0 72.2 404
15:37:50 5 1000 182 6 SW 0 72.2 404
15:40:47 5 999 178 5 SO 0 73.2 404
15:43:50 5 1000 151 5 SO 0 74 405
15:46:49 5 1000 144 5 SW 0 75.2 404
15:49:46 5 1000 150 2 S 0 75.7 407
15:52:49 5 1000 163 6 S 0 76.7 407
15:55:46 5 999 148 3 NW 0 77 407
15:58:47 5 1001 114 7 S 0 76.7 404
16:01:50 5 1000 120 2 SW 0 77.1 404
16:04:48 5 1000 133 12 S 0 77.3 404
16:07:46 5 1000 127 5 O 0 76.7 405
16:10:49 5 1000 97 4 S 0 77.4 404
16:13:48 5 1000 102 1 SW 0 77.9 404
16:16:47 5 1000 109 6 S 0 78.3 405
16:19:46 5 1000 116 7 W 0 78.1 407
16:22:47 5 1000 119 4 SO 0 78.3 403
16:25:48 5 1001 121 6 SW 0 78.2 406
16:28:48 5 1000 115 3 SW 0 77.7 405
16:31:49 5 1000 110 2 NW 0 77.8 404
16:34:48 5 1000 113 2 SO 0 78 407
16:37:48 5 1000 122 5 SO 0 77.9 407
16:40:49 5 1000 143 6 SO 0 77.4 407
16:43:48 5 1000 125 5 S 0 77.5 407
16:46:47 5 1000 106 3 W 0 77.6 404
16:49:48 5 1000 77 6 SO 0 77.7 405
16:52:45 5 999 79 16 O 0 77.6 403
16:55:47 5 999 52 5 S 0 78.3 405
16:58:47 5 1000 77 3 SW 0 78.9 407
17:01:47 5 999 74 6 S 0 79 406
17:04:47 5 1000 69 5 S 0 79 406
17:07:46 5 1000 60 3 SW 0 79.4 407
17:10:47 5 999 62 4 S 0 79.1 407
17:13:46 5 999 45 7 SW 0 79 404
17:16:47 5 999 34 2 SW 0 79.8 406
17:19:45 5 1000 27 1 SO 0 79.9 409
17:22:50 4 999 21 9 W 0 80.6 404
17:25:47 4 1000 16 6 SW 0 80.8 410
17:28:47 4 999 15 5 SW 0 81 404
17:31:46 4 1000 9 4 W 0 81 404
17:34:45 4 999 5 3 N 0 81.1 407
17:37:46 4 999 3 5 O 0 81.3 404
17:40:45 4 999 0 4 S 0 81.2 409
17:43:46 4 999 0 3 NW 0 81.3 410
17:46:45 4 999 0 3 NW 0 81.1 414
17:49:48 4 999 0 7 NW 0 81.3 404
17:52:46 4 999 0 8 SO 0 81.6 405
17:55:45 4 999 0 8 SO 0 81.4 403
17:58:45 4 998 0 4 S 0 81.3 404
18:01:44 4 999 0 3 S 0 81.2 407
18:04:47 4 999 0 6 SO 0 81.2 407
18:07:45 4 999 0 5 O 0 81.1 410
18:10:46 4 999 0 4 SW 0 80.4 410
18:13:45 4 999 0 6 SW 0 80.7 407
18:16:44 4 999 0 3 S 0 80.4 407
18:19:46 4 999 0 2 S 0 80.7 404
18:22:46 4 999 0 3 W 0 80.8 401
18:25:47 4 999 0 15 SO 0 80.4 407
18:28:47 4 999 0 14 S 0 79.7 406
18:31:46 4 999 0 4 NW 0 79.2 410
18:34:48 4 999 0 4 SW 0 78.6 412
18:37:47 4 998 0 5 SW 0 78.5 410
18:40:45 4 999 0 4 N 0 78 407
18:43:43 4 999 0 5 S 0 78.6 404
18:46:48 4 999 0 4 SW 0 78 407
18:49:46 4 999 0 8 SO 0 77.8 407
18:52:46 4 999 0 4 SO 0 77.6 413
18:55:46 5 999 0 4 W 0 77.6 410
18:58:46 5 998 0 4 NW 0 77.5 406
19:01:47 5 998 0 0 SO 0 77 406
19:04:44 5 999 0 6 W 0 77.2 406
19:07:46 5 999 0 5 SW 0 76.6 407
19:10:45 5 998 0 6 S 0 77 406
19:13:44 5 999 0 3 O 0 76.7 404
19:16:45 5 998 0 6 W 0 76.9 404
19:19:45 5 999 0 12 SW 0 76.4 404
19:22:46 5 999 0 3 O 0 76.4 407
19:25:45 5 998 0 1 S 0 76.4 404
19:28:46 5 998 0 9 SW 0 76.5 407
19:31:44 5 998 0 1 W 0 76.1 404
19:34:44 5 998 0 4 S 0 76.3 404
19:37:46 5 998 0 6 SW 0 76.2 404
19:40:46 5 998 0 7 SW 0 75.8 406
19:43:44 5 999 0 4 O 0 75.5 407
19:46:45 5 998 0 8 W 0 75.8 406
19:49:45 5 999 0 9 SW 0 75.6 406
19:52:46 5 998 0 8 SO 0 75.5 404
19:55:46 5 998 0 5 S 0 75 404
19:58:45 5 998 0 3 O 0 75.5 407
20:01:49 5 998 0 2 SW 0 75.6 410
20:04:46 5 998 0 5 W 0 75.9 407
20:07:49 5 998 0 9 S 0 75.5 404
20:10:46 5 998 0 3 SO 0 75.4 404
20:13:47 5 998 0 8 SW 0 76 404
20:16:46 5 998 0 8 W 0 75.9 407
20:19:45 5 998 0 6 W 0 75.8 404
20:22:44 5 998 0 8 S 0 76 405
20:25:47 5 998 0 4 SO 0 76 407
20:28:46 5 998 0 16 O 0 75.9 404
20:31:45 5 998 0 4 SW 0 75.5 404
20:34:49 5 998 0 10 SW 0 75.4 407
20:37:48 5 998 0 8 S 0 75 407
20:40:47 5 998 0 3 NW 0 75.8 407
20:43:46 5 998 0 7 SO 0 76.2 406
20:46:50 5 998 0 4 SW 0 76.3 410
20:49:46 5 998 0 7 SW 0 76.5 419
20:52:47 5 998 0 5 SO 0 76.2 422
20:55:46 5 998 0 2 SW 0 76.7 436
20:58:47 5 998 0 5 SW 0 76.6 460
21:01:46 5 998 0 7 SW 0 76.4 480
21:04:46 5 997 0 3 S 0 76.8 507
21:07:44 5 998 0 9 S 0 76.7 533
21:10:47 5 997 0 2 SW 0 76.5 550
21:13:44 5 998 0 5 N 0 76.4 567
21:16:44 5 998 0 4 W 0 76.2 578
21:19:47 5 998 0 4 S 0 76.6 587
21:22:47 5 997 0 6 SO 0 76.9 589
21:25:44 5 997 0 7 S 0 77 600
21:28:48 5 997 0 10 SO 0 77 613
21:31:47 5 997 0 2 SW 0 77.6 618
21:34:45 5 997 0 14 S 0 78.5 635
21:37:47 5 997 0 16 S 0 79.7 640
21:40:46 5 997 0 4 SO 0 80.5 683
21:43:47 5 997 0 8 SW 0 81.7 692
21:46:46 5 996 0 16 S 0 82.3 694
21:49:49 5 996 0 8 SW 0 82.8 703
21:52:47 5 997 0 2 N 0 83.8 711
21:55:46 5 996 0 4 SW 0 83.3 715
21:58:46 5 996 0 6 SW 0 83 713
22:01:47 5 996 0 5 SO 0 82.8 723
22:04:47 5 996 0 4 SW 0 82.4 725
22:07:46 5 996 0 9 S 0 81.6 735
22:10:47 5 996 0 5 SW 0 81 748
22:13:47 5 995 0 6 SW 0 80.7 752
22:16:49 5 996 0 10 S 0 79.9 753
22:19:46 5 995 0 6 SO 0 80.1 751
22:22:48 5 996 0 9 S 0 79.3 752
22:25:45 5 995 0 7 S 0 79.2 768
22:28:46 5 995 0 6 O 0 78.8 780
22:31:48 5 995 0 8 SO 0 78.4 789
22:34:47 5 995 0 7 W 0 78.2 783
22:37:48 5 995 0 5 SW 0 78.2 773
22:40:49 5 995 0 4 SW 0 78.2 757
22:43:46 5 995 0 11 NW 0 78.3 758
22:46:48 5 995 0 9 N 0 78.2 753
22:49:48 5 995 0 1 SO 0 78.1 757
22:52:45 5 995 0 9 SO 0 78.1 764
22:55:45 5 995 0 7 NW 0 78 772
22:58:46 5 995 0 6 SO 0 77.9 783
23:01:46 5 995 0 8 S 0 77.9 791
23:04:46 5 995 0 6 SW 0 78 797
23:07:48 5 995 0 19 S 0 77.8 806
23:10:44 5 995 0 4 S 0 77.5 814
23:13:47 5 995 0 5 W 0 78 824
23:16:47 5 995 0 11 SW 0 78.2 834
23:19:47 5 995 0 7 SW 0 78.1 842
23:22:48 5 995 0 10 S 0 78.4 847
23:25:46 5 995 0 10 S 0 78.2 847
23:28:50 5 995 0 2 SW 0 78.5 844
23:31:46 5 995 0 10 SW 0 78.7 844
23:34:50 5 995 0 9 SO 0 79 839
23:37:47 5 995 0 3 S 0 79.1 842
23:40:49 5 995 0 7 SO 0 79.8 848
23:43:47 5 995 0 4 S 0 80.2 848
23:46:46 5 995 0 6 SO 0 80.4 856
23:49:46 5 995 0 5 W 0 80.7 861
23:52:46 5 995 0 16 O 0 81.5 868
23:55:46 5 995 0 6 W 0 81.5 861
23:58:50 5 995 0 10 SW 0 82.3 869

Letzte Änderung : 22-Jul-2022
Copyright Jens Köhler, Wolfsburg, Obere Dorfstraße 10d